HODOYOSHI 4

导读

HODOYOSHI 4是日本于2014年6月19日发射的一颗卫星,由日本本土航天机构主持发射任务。作为日本航天布局中的小型卫星,该卫星主要用于技术验证与空间环境观测,承载着日本推进航天技术积累、测试新型空间载荷的任务目标,其发射丰富了日本低轨卫星星座的观测数据,为后续同类卫星研发提供实践经验,是日本航天发展进程中的一次重要技术尝试。

Basic Information
目录编号:
40011
目录名称:
HODOYOSHI 4
国际标识:
2014-033B
轨道中心:
EARTH
卫星名称:
HODOYOSHI 4
卫星全名:
--
卫星状态:
在轨 (已飞行4460 天)
发射日期:
2014-06-19 UTC
国别 :
日本 (JP)
星等 :
--
Orbit Information
数据来源 国际轨道数据
星历时间: 2026-09-05T01:01:12+0800
6小时前
查看轨道信息
半长轴: 6981.415km
偏心率: 0.0024723
轨道倾角: 97.549°
近地点辐角 44.246°
升交点赤经 68.719°
平近点角 316.073°
近地点: 586.017km
远地点: 620.539km
周期: 96.755分钟
每日圈数: 14.882903
Detailed Information
使用方式:
暂无
2D Orbit Map
3D Orbit Map
Orbit Altitude Analysis Chart
Orbit Inclination Analysis Chart
Orbit Comprehensive Analysis Chart
View Comprehensive Chart
Conjunction Data List
Event ID Objects TCA Miss Dist (km) Collision Risk Probability Collision Risk Index (CRI) Action
CDM_260901-070904-001106-458528
2026-09-01T
07:09:06+0000
2.057 km
极远距离
1.867132E-6 低风险 0.4